Weather History for KMPZ - October, 2013

Change the Weather History Date:

Friday, October 4, 2013

  Actual Average Record
Temperature  
Mean Temperature 76 °F -  
Max Temperature 86 °F 69 °F 88 °F (1951)
Min Temperature 67 °F 45 °F 29 °F (1989)
Cooling Degree Days 11    
Growing Degree Days 26 (Base 50)    
Moisture  
Dew Point 66 °F    
Average Humidity 74    
Maximum Humidity 94    
Minimum Humidity 51    
Precipitation  
Precipitation 0.00 in - - ()
Sea Level Pressure  
Sea Level Pressure 29.88 in    
Wind  
Wind Speed 8 mph (SSE)    
Max Wind Speed 15 mph    
Max Gust Speed 22 mph    
Visibility 9 miles    
Events Rain    
Averages and records for this station are not official NWS values.
T = Trace of Precipitation, MM = Missing Value Source: NWS Daily Summary

Daily Weather History Graph

Daily Weather History Graph

Search for Another Location

Airport or City:

Trip Planner

Search our weather history database for the weather conditions in past years. The results will help you decide how hot, cold, wet, or windy it might be!

Date:

Astronomy

Oct. 04, 2013 Rise Set
Actual Time 7:06 AM CDT 6:42 PM CDT
Civil Twilight 6:38 AM CDT 7:09 PM CDT
Nautical Twilight 6:06 AM CDT 7:41 PM CDT
Astronomical Twilight 5:34 AM CDT 8:13 PM CDT
Moon 6:41 AM CDT (10/4) 6:24 PM CDT (10/4)
Length of Visible Light 12h 31m
Length of Day
11h 36m
Waning Crescent, 0% of the Moon is Illuminated
Oct 4
Waning Crescent
Oct 4
New
Oct 11
First Quarter
Oct 18
Full
Oct 26
Last Quarter

Hourly Weather History & Observations

Time (CDT) Temp. Heat Index Dew Point Humidity Pressure Visibility Wind Dir Wind Speed Gust Speed Precip Events Conditions
12:15 AM 67.3 °F - 63.7 °F 88% 29.88 in 10.0 mi SE 8.1 mph - N/A   Clear
12:35 AM 67.5 °F - 64.0 °F 89% 29.88 in 10.0 mi SSE 6.9 mph - N/A   Clear
12:55 AM 67.5 °F - 64.2 °F 89% 29.90 in 10.0 mi NNW 6.9 mph - N/A   Mostly Cloudy
1:15 AM 68.4 °F - 64.4 °F 87% 29.90 in 10.0 mi Calm Calm - N/A   Overcast
1:35 AM 68.5 °F - 64.8 °F 88% 29.89 in 10.0 mi ESE 5.8 mph - N/A   Overcast
1:55 AM 68.9 °F - 65.7 °F 89% 29.88 in 10.0 mi SSE 6.9 mph 16.1 mph N/A   Scattered Clouds
2:15 AM 69.1 °F - 65.5 °F 88% 29.88 in 10.0 mi SSE 8.1 mph - N/A   Scattered Clouds
2:35 AM 68.5 °F - 65.5 °F 90% 29.88 in 10.0 mi SSE 6.9 mph - N/A   Clear
2:55 AM 68.9 °F - 65.7 °F 89% 29.87 in 10.0 mi South 5.8 mph - N/A   Clear
3:15 AM 68.2 °F - 65.5 °F 91% 29.87 in 10.0 mi South 5.8 mph - N/A   Clear
3:35 AM 68.0 °F - 65.7 °F 92% 29.87 in 7.0 mi South 6.9 mph - N/A   Clear
3:55 AM 68.5 °F - 66.2 °F 92% 29.87 in 7.0 mi South 10.4 mph - N/A   Clear
4:15 AM 68.5 °F - 66.2 °F 92% 29.88 in 7.0 mi South 8.1 mph - N/A   Clear
4:35 AM 68.7 °F - 66.4 °F 92% 29.88 in 7.0 mi South 9.2 mph - N/A   Clear
4:55 AM 68.4 °F - 66.2 °F 93% 29.88 in 7.0 mi South 6.9 mph - N/A   Clear
5:15 AM 68.2 °F - 66.2 °F 93% 29.89 in 7.0 mi South 6.9 mph - N/A   Clear
5:35 AM 68.0 °F - 66.2 °F 94% 29.89 in 5.0 mi South 5.8 mph - N/A   Clear
5:55 AM 67.8 °F - 65.7 °F 93% 29.89 in 5.0 mi South 5.8 mph - N/A   Clear
6:15 AM 68.0 °F - 66.2 °F 94% 29.89 in 5.0 mi South 5.8 mph - N/A   Clear
6:35 AM 68.0 °F - 66.2 °F 94% 29.89 in 5.0 mi South 6.9 mph - N/A   Scattered Clouds
6:55 AM 68.0 °F - 66.2 °F 94% 29.88 in 5.0 mi South 6.9 mph - N/A   Scattered Clouds
7:35 AM 68.5 °F - 66.7 °F 94% 29.89 in 3.0 mi South 8.1 mph - N/A   Scattered Clouds
7:55 AM 69.4 °F - 67.3 °F 93% 29.89 in 5.0 mi South 8.1 mph - N/A   Mostly Cloudy
8:15 AM 70.0 °F - 67.5 °F 92% 29.90 in 5.0 mi South 10.4 mph - N/A   Mostly Cloudy
8:35 AM 70.9 °F - 67.5 °F 89% 29.90 in 7.0 mi South 8.1 mph - N/A   Mostly Cloudy
8:55 AM 72.5 °F - 68.0 °F 86% 29.90 in 10.0 mi South 9.2 mph - N/A   Mostly Cloudy
9:15 AM 73.4 °F - 68.0 °F 83% 29.90 in 10.0 mi South 10.4 mph - N/A   Scattered Clouds
9:35 AM 75.0 °F - 67.8 °F 78% 29.90 in 10.0 mi South 11.5 mph 18.4 mph N/A   Scattered Clouds
9:55 AM 75.4 °F - 67.5 °F 76% 29.90 in 10.0 mi South 13.8 mph 18.4 mph N/A   Mostly Cloudy
10:15 AM 77.7 °F - 67.6 °F 71% 29.90 in 10.0 mi South 12.7 mph 18.4 mph N/A   Mostly Cloudy
10:35 AM 77.0 °F - 67.3 °F 72% 29.90 in 10.0 mi South 10.4 mph - N/A   Overcast
10:55 AM 76.5 °F - 66.7 °F 72% 29.91 in 10.0 mi SSW 12.7 mph 21.9 mph N/A   Overcast
11:15 AM 77.4 °F - 67.1 °F 71% 29.92 in 10.0 mi SSW 12.7 mph 17.3 mph N/A   Overcast
11:35 AM 76.5 °F - 66.7 °F 72% 29.93 in 10.0 mi SSW 6.9 mph - N/A   Overcast
11:55 AM 77.2 °F - 67.1 °F 71% 29.93 in 10.0 mi SSW 9.2 mph - N/A   Overcast
12:15 PM 75.9 °F - 68.0 °F 76% 29.93 in 7.0 mi SW 10.4 mph 17.3 mph N/A Rain Rain
12:35 PM 76.3 °F - 68.5 °F 77% 29.93 in 10.0 mi SSW 4.6 mph - N/A   Mostly Cloudy
12:55 PM 78.1 °F - 68.2 °F 71% 29.91 in 10.0 mi SSE 4.6 mph - N/A   Overcast
1:15 PM 79.2 °F - 67.6 °F 68% 29.90 in 10.0 mi SE 5.8 mph - N/A   Overcast
1:35 PM 80.4 °F 82.7 °F 66.6 °F 63% 29.89 in 10.0 mi SSW 6.9 mph - N/A   Overcast
1:55 PM 82.9 °F 85.0 °F 65.7 °F 56% 29.87 in 10.0 mi South 9.2 mph - N/A   Overcast
2:15 PM 82.6 °F 84.9 °F 66.4 °F 58% 29.87 in 10.0 mi SSE 8.1 mph - N/A   Overcast
2:35 PM 83.7 °F 85.5 °F 65.7 °F 54% 29.86 in 10.0 mi SSE 5.8 mph - N/A   Scattered Clouds
2:55 PM 82.6 °F 85.1 °F 66.7 °F 59% 29.86 in 10.0 mi East 5.8 mph - N/A   Mostly Cloudy
3:15 PM 83.5 °F 85.7 °F 66.4 °F 56% 29.86 in 10.0 mi ESE 9.2 mph - N/A   Mostly Cloudy
3:35 PM 83.3 °F 85.7 °F 66.4 °F 57% 29.86 in 10.0 mi ESE 8.1 mph - N/A   Scattered Clouds
3:55 PM 84.4 °F 86.8 °F 66.4 °F 55% 29.86 in 10.0 mi SE 8.1 mph - N/A   Scattered Clouds
4:15 PM 84.6 °F 86.8 °F 66.2 °F 54% 29.86 in 10.0 mi SE 9.2 mph - N/A   Scattered Clouds
4:35 PM 84.4 °F 87.1 °F 66.9 °F 56% 29.85 in 10.0 mi ESE 9.2 mph - N/A   Clear
4:55 PM 83.7 °F 86.2 °F 67.1 °F 57% 29.84 in 10.0 mi ESE 8.1 mph - N/A   Clear
5:15 PM 85.5 °F 87.9 °F 66.7 °F 53% 29.84 in 10.0 mi ESE 10.4 mph - N/A   Clear
5:35 PM 83.8 °F 86.3 °F 66.4 °F 56% 29.84 in 10.0 mi SE 8.1 mph - N/A   Clear
5:55 PM 84.6 °F 86.1 °F 64.6 °F 51% 29.83 in 10.0 mi SSE 9.2 mph - N/A   Clear
6:15 PM 82.2 °F 83.2 °F 62.4 °F 51% 29.84 in 10.0 mi SSE 8.1 mph - N/A   Clear
6:35 PM 80.2 °F 81.3 °F 61.9 °F 53% 29.84 in 10.0 mi SSE 9.2 mph - N/A   Clear
6:55 PM 78.8 °F - 62.2 °F 57% 29.84 in 10.0 mi SSE 9.2 mph - N/A   Clear
7:15 PM 77.9 °F - 62.6 °F 59% 29.85 in 10.0 mi SE 8.1 mph - N/A   Clear
7:35 PM 78.1 °F - 62.2 °F 58% 29.85 in 10.0 mi SSE 8.1 mph - N/A   Clear
7:55 PM 76.5 °F - 62.6 °F 62% 29.85 in 10.0 mi SE 6.9 mph - N/A   Clear
8:15 PM 76.5 °F - 62.8 °F 62% 29.86 in 10.0 mi SSE 9.2 mph - N/A   Clear
8:35 PM 77.0 °F - 63.0 °F 62% 29.86 in 10.0 mi SE 9.2 mph - N/A   Clear
8:55 PM 76.5 °F - 63.0 °F 63% 29.85 in 10.0 mi SE 9.2 mph - N/A   Clear
9:15 PM 75.6 °F - 62.8 °F 64% 29.85 in 10.0 mi SSE 10.4 mph - N/A   Clear
9:35 PM 76.3 °F - 62.6 °F 62% 29.85 in 10.0 mi SSE 12.7 mph - N/A   Clear
9:55 PM 76.1 °F - 62.6 °F 63% 29.85 in 10.0 mi SSE 15.0 mph - N/A   Clear
10:15 PM 76.1 °F - 63.0 °F 64% 29.86 in 10.0 mi SSE 11.5 mph 18.4 mph N/A   Clear
10:35 PM 76.5 °F - 63.3 °F 64% 29.86 in 10.0 mi South 13.8 mph 19.6 mph N/A   Clear
10:55 PM 76.1 °F - 63.7 °F 65% 29.86 in 10.0 mi South 12.7 mph 18.4 mph N/A   Clear
11:15 PM 76.1 °F - 64.2 °F 67% 29.86 in 10.0 mi South 12.7 mph 20.7 mph N/A   Clear
11:35 PM 75.9 °F - 64.6 °F 68% 29.87 in 10.0 mi South 12.7 mph - N/A   Clear
11:55 PM 75.2 °F - 64.8 °F 70% 29.87 in 10.0 mi South 10.4 mph - N/A   Clear